Location: Pony
(45.6596°N, 111.8933°W)
Time: 11:14:54
(UTC+00:00)

Envisat - Visible Passes

Search period start: 26 January 2022 00:00
Search period end: 05 February 2022 00:00
Orbit: 764 x 766 km, 98.2° (Epoch: 26 January)

Date Brightness Start Highest point End Pass type
(mag) Time Alt. Az. Time Alt. Az. Time Alt. Az.
26 Jan 5.7 11:03:56 10° NE 11:06:50 15° E 11:09:42 10° ESE visible
26 Jan 2.8 12:41:18 10° N 12:46:24 73° WNW 12:51:27 10° SSW visible
26 Jan 4.8 14:22:54 10° NW 14:24:31 11° NW 14:26:08 10° WNW visible
27 Jan 3.6 12:04:30 10° NNE 12:09:29 53° E 12:14:27 10° S visible
27 Jan 4.1 13:44:16 10° NNW 13:48:09 22° WNW 13:52:00 10° WSW visible
28 Jan 6.2 01:03:50 10° WSW 01:05:54 12° W 01:07:59 10° WNW visible
28 Jan 5.0 11:28:12 10° NE 11:32:23 25° E 11:36:33 10° SSE visible
28 Jan 3.3 13:06:46 10° N 13:11:35 44° WNW 13:16:22 10° SW visible
29 Jan 5.9 10:53:18 10° ENE 10:55:05 12° E 10:56:50 10° ESE visible
29 Jan 2.9 12:29:41 10° NNE 12:34:49 89° ESE 12:39:54 10° SSW visible
29 Jan 4.6 14:10:29 10° NNW 14:13:06 14° WNW 14:15:41 10° W visible
30 Jan 4.1 11:53:00 10° NNE 11:57:51 42° E 12:02:39 10° S visible
30 Jan 3.9 13:32:25 10° N 13:36:40 27° WNW 13:40:53 10° WSW visible
31 Jan 5.3 11:16:57 10° NE 11:20:41 20° E 11:24:24 10° SE visible
31 Jan 3.0 12:55:04 10° N 13:00:02 55° WNW 13:04:58 10° SSW visible
01 Feb 3.1 12:18:06 10° NNE 12:23:12 72° ESE 12:28:16 10° S visible
01 Feb 4.4 13:58:23 10° NNW 14:01:39 17° WNW 14:04:54 10° W visible
02 Feb 4.5 11:41:34 10° NNE 11:46:11 34° E 11:50:45 10° SSE visible
02 Feb 3.6 13:20:38 10° N 13:25:09 33° WNW 13:29:40 10° SW visible
03 Feb 5.6 11:05:51 10° NE 11:08:57 16° E 11:12:03 10° SE visible
03 Feb 2.9 12:43:25 10° N 12:48:28 69° WNW 12:53:31 10° SSW visible
04 Feb 3.5 12:06:33 10° NNE 12:11:35 57° E 12:16:34 10° S visible
04 Feb 4.2 13:46:26 10° NNW 13:50:11 21° WNW 13:53:56 10° WSW visible
